Location: *
(45.9500°N, 9.0833°E)
Time: 21:12:59
(UTC+00:00)

Vanguard 2 Rocket - Pass Details

Date: 21 June 2021
Orbit: 555 x 3325 km, 32.9° (Epoch: 30 July)

Event Time Altitude Azimuth Distance (km) Brightness Sun altitude
Rises 20:01:10 0° 253° (WSW) 7,310 11.9 -6.6°
Reaches altitude 10° 20:06:24 10° 249° (WSW) 6,252 11.5 -7.2°
Maximum altitude 20:24:36 50° 183° (S) 3,205 9.4 -9.4°
Drops below altitude 10° 20:36:50 10° 113° (ESE) 4,343 9.8 -10.8°
Enters shadow 20:38:15 - 110° (ESE) 4,658 10.0 -10.9°
Sets 20:39:45 0° 107° (ESE) 5,018 - -11.1°
